578  
ASUS44 KOUN 262300  
RWROK  
 
WEATHER ROUNDUP FOR OKLAHOMA  
NATIONAL WEATHER SERVICE NORMAN OK  
500 PM CST SAT NOV 26 2022  
 
NOTE: "FAIR" INDICATES FEW OR NO CLOUDS BELOW 12,000 FEET WITH NO  
SIGNIFICANT WEATHER AND/OR S TO VISIBILITY
.  
 
OKZ001>007-009>012-014-015-017-270000-  
NORTHWEST OKLAHOMA AND THE PANHANDLE  
 
CITY SKY/WX TMP DP RH WIND PRES REMARKS
 
GAGE LGT RAIN 42 40 92 NW3 29.69F  
GUYMON CLOUDY 42 38 85 CALM 29.70F  
ENID/WOODRING DRIZZLE 46 46 100 N12 29.64F  

 
 
OKZ016-021>023-033>039-044-045-270000-  
SOUTHWEST OKLAHOMA  
 
CITY SKY/WX TMP DP RH WIND PRES REMARKS
 
LAWTON/REGL CLOUDY 48 45 89 VRB3 29.66F  
LAWTON/FT SILL CLOUDY 47 47 99 NW6 29.63F  
CLINTON CLOUDY 42 41 96 N14 29.68F FOG WCI 35  
HOBART N/A 45 43 93 N14 29.68S  
ALTUS AFB CLOUDY 46 42 87 NW15 29.67S  

 
 
OKZ018>020-024>031-270000-  
CENTRAL OKLAHOMA  
 
CITY SKY/WX TMP DP RH WIND PRES REMARKS
 
OKLAHOMA CITY DRIZZLE 47 46 97 NW9 29.62F  
OKC/WILEY POST CLOUDY 47 45 93 NW10 29.62F FOG  
STILLWATER CLOUDY 50 48 93 N8 29.63F FOG  
GUTHRIE CLOUDY 47 46 97 N5 29.63F FOG  

 
 
OKZ008-013-054>072-270000-  
NORTHEAST OKLAHOMA  
 
CITY SKY/WX TMP DP RH WIND PRES REMARKS
 
TULSA FOG 50 50 100 N3 29.62F VSB 1  
TULSA/JONES LGT RAIN 51 50 96 CALM 29.61F FOG  
PONCA CITY LGT RAIN 49 47 93 NE9 29.64F FOG  
BARTLESVILLE LGT RAIN 48 48 100 N6 29.65F FOG  
MUSKOGEE CLOUDY 51 51 100 SE8 29.64S FOG  

 
 
OKZ032-040>043-046>053-073>077-270000-  
SOUTH CENTRAL/SOUTHEAST OKLAHOMA  
 
CITY SKY/WX TMP DP RH WIND PRES REMARKS
 
MCALESTER CLOUDY 53 52 96 CALM 29.61S  

 
 
 
 
CLICK HERE TO GO TO PREVIOUS BULLETINS.

The Nexlab OK Page Main Text Page